Location: Unspecified
(0.0000°N, 0.0000°E)
Time: 16:22:43
(UTC+00:00)

Vanguard 2 Rocket - Pass Details

Date: 26 November 2019
Orbit: 554 x 3326 km, 32.9° (Epoch: 13 December)

Event Time Altitude Azimuth Distance (km) Brightness Sun altitude
Rises 13:46:02 0° 227° (SW) 7,252 12.0 54.2°
Reaches altitude 10° 13:53:25 10° 212° (SSW) 6,287 11.9 52.7°
Maximum altitude 14:06:40 21° 170° (S) 5,070 11.2 50.0°
Drops below altitude 10° 14:17:44 10° 127° (SE) 5,226 10.7 47.7°
Sets 14:22:53 0° 112° (ESE) 5,774 10.7 46.6°
